Beidou DW 48

operational
NORAD ID: 44542 Int'l Des: 2019-061 Owner: CNSA Country: CN Constellation: BeiDou
MEOCIRCULAR

关于 Beidou DW 48

正在加载描述...

实时位置

正在加载3D地球...

即将过境

高度历史

Altitude vs Time

uPlot chart will show altitude changes over time

两行轨道根数

1 44542U 19061A 25298.05619706 .00000027 00000-0 00000-0 0 9995
2 44542 54.4013 190.6596 0009221 15.2716 344.8415 1.86229469 41416
Epoch: Oct 25, 2025 • Age: 34 hours

当前状态

高度 21562.4 km
速度 3.78 km/s
星下点 -42.41°S, 157.29°W
发射日期 Sep 22, 2019
运行时间 6 years
类型 navigation

技术详情

分类 Payload
质量 1014.00 kg
干质量 850.00 kg
总质量 1014.00 kg
长度 2.20 m
直径 1.70 m
跨度 10.00 m
形状 Box + 2 Pan
制造商 CAST
平台类型 BD-3M/SAR
阶段状态 In Orbit
所有者/国家 CNSA/CN

大型星座

Loading constellations...